contact:dominique.lefevre@mio.osupytheas.fr, maurice.libes@osupytheas.fr, didier.mallarino@osupytheas.fr
Project:EMSO http://www.emso-fr.org/EMSO-France
Depth: 2436.0 m
Title:EMSO Ligure Ouest : Data MII capteur MICROCAT
DateTime_Computer,Latitude,Longitude,Temperature,Conductivity,Pressure,DateTime_Instrument
DateTime_Computer,Latitude,Longitude,degC,S m-1,dbar,DateTime_Instrument
2023-07-16T00:02:31Z,42.805,6.029,13.3047,4.60198,2470.646,2023-7-16T02:04:48Z
2023-07-16T00:05:34Z,42.805,6.029,13.3052,4.60175,2470.684,2023-7-16T02:07:51Z
2023-07-16T00:08:38Z,42.805,6.029,13.3045,4.60178,2470.717,2023-7-16T02:10:54Z
2023-07-16T00:11:41Z,42.805,6.029,13.3048,4.60197,2470.717,2023-7-16T02:13:57Z
2023-07-16T00:14:44Z,42.805,6.029,13.3056,4.60167,2470.693,2023-7-16T02:17:00Z
2023-07-16T00:17:47Z,42.805,6.029,13.3046,4.60173,2470.646,2023-7-16T02:20:03Z
2023-07-16T00:20:50Z,42.805,6.029,13.3051,4.60146,2470.693,2023-7-16T02:23:07Z
2023-07-16T00:23:53Z,42.805,6.029,13.3049,4.60194,2470.67,2023-7-16T02:26:10Z
2023-07-16T00:26:56Z,42.805,6.029,13.3058,4.60193,2470.684,2023-7-16T02:29:13Z
2023-07-16T00:29:59Z,42.805,6.029,13.3051,4.60173,2470.646,2023-7-16T02:32:16Z
2023-07-16T00:33:02Z,42.805,6.029,13.3084,4.60124,2470.684,2023-7-16T02:35:19Z
2023-07-16T00:36:05Z,42.805,6.029,13.3071,4.60162,2470.684,2023-7-16T02:38:22Z
2023-07-16T00:39:08Z,42.805,6.029,13.3077,4.60152,2470.624,2023-7-16T02:41:25Z
2023-07-16T00:42:11Z,42.805,6.029,13.3084,4.60162,2470.67,2023-7-16T02:44:28Z
2023-07-16T00:45:15Z,42.805,6.029,13.3091,4.60178,2470.684,2023-7-16T02:47:31Z
2023-07-16T00:48:18Z,42.805,6.029,13.3093,4.60176,2470.67,2023-7-16T02:50:34Z
2023-07-16T00:51:21Z,42.805,6.029,13.3085,4.60117,2470.646,2023-7-16T02:53:37Z
2023-07-16T00:54:24Z,42.805,6.029,13.3088,4.60164,2470.646,2023-7-16T02:56:41Z
2023-07-16T00:57:27Z,42.805,6.029,13.3104,4.60160,2470.646,2023-7-16T02:59:44Z
2023-07-16T01:00:30Z,42.805,6.029,13.3061,4.60176,2470.646,2023-7-16T03:02:47Z
2023-07-16T01:03:33Z,42.805,6.029,13.3057,4.60173,2470.661,2023-7-16T03:05:50Z
2023-07-16T01:06:36Z,42.805,6.029,13.3073,4.60207,2470.693,2023-7-16T03:08:53Z
2023-07-16T01:09:39Z,42.805,6.029,13.3082,4.60180,2470.661,2023-7-16T03:11:56Z
2023-07-16T01:12:42Z,42.805,6.029,13.3076,4.60190,2470.646,2023-7-16T03:14:59Z
2023-07-16T01:15:45Z,42.805,6.029,13.3094,4.60170,2470.646,2023-7-16T03:18:02Z
2023-07-16T01:18:48Z,42.805,6.029,13.3096,4.60150,2470.637,2023-7-16T03:21:05Z
2023-07-16T01:21:51Z,42.805,6.029,13.3104,4.60125,2470.624,2023-7-16T03:24:08Z
2023-07-16T01:24:55Z,42.805,6.029,13.3081,4.60131,2470.661,2023-7-16T03:27:11Z
2023-07-16T01:27:58Z,42.805,6.029,13.3091,4.60135,2470.67,2023-7-16T03:30:14Z
2023-07-16T01:31:01Z,42.805,6.029,13.3079,4.60127,2470.646,2023-7-16T03:33:17Z
2023-07-16T01:34:04Z,42.805,6.029,13.3072,4.60140,2470.646,2023-7-16T03:36:21Z
2023-07-16T01:37:07Z,42.805,6.029,13.3087,4.60133,2470.684,2023-7-16T03:39:24Z
2023-07-16T01:40:10Z,42.805,6.029,13.3078,4.60152,2470.624,2023-7-16T03:42:27Z
2023-07-16T01:43:13Z,42.805,6.029,13.3072,4.60137,2470.661,2023-7-16T03:45:30Z
2023-07-16T01:46:16Z,42.805,6.029,13.3060,4.60141,2470.684,2023-7-16T03:48:33Z
2023-07-16T01:49:19Z,42.805,6.029,13.3069,4.60140,2470.637,2023-7-16T03:51:36Z
2023-07-16T01:52:22Z,42.805,6.029,13.3076,4.60122,2470.67,2023-7-16T03:54:39Z
2023-07-16T01:55:25Z,42.805,6.029,13.3091,4.60121,2470.646,2023-7-16T03:57:42Z
2023-07-16T01:58:29Z,42.805,6.029,13.3096,4.60118,2470.646,2023-7-16T04:00:45Z
2023-07-16T02:01:32Z,42.805,6.029,13.3067,4.60160,2470.684,2023-7-16T04:03:48Z
2023-07-16T02:04:35Z,42.805,6.029,13.3066,4.60142,2470.661,2023-7-16T04:06:51Z
2023-07-16T02:07:38Z,42.805,6.029,13.3089,4.60140,2470.646,2023-7-16T04:09:54Z
2023-07-16T02:10:41Z,42.805,6.029,13.3086,4.60113,2470.661,2023-7-16T04:12:58Z
2023-07-16T02:13:44Z,42.805,6.029,13.3058,4.60107,2470.646,2023-7-16T04:16:01Z
2023-07-16T02:16:47Z,42.805,6.029,13.3077,4.60125,2470.646,2023-7-16T04:19:04Z
2023-07-16T02:19:50Z,42.805,6.029,13.3089,4.60148,2470.661,2023-7-16T04:22:07Z
2023-07-16T02:22:53Z,42.805,6.029,13.3073,4.60135,2470.707,2023-7-16T04:25:10Z
2023-07-16T02:25:56Z,42.805,6.029,13.3084,4.60173,2470.684,2023-7-16T04:28:13Z
2023-07-16T02:28:59Z,42.805,6.029,13.3098,4.60140,2470.684,2023-7-16T04:31:16Z
2023-07-16T02:32:02Z,42.805,6.029,13.3095,4.60125,2470.67,2023-7-16T04:34:19Z
2023-07-16T02:35:05Z,42.805,6.029,13.3079,4.60137,2470.646,2023-7-16T04:37:22Z
2023-07-16T02:38:09Z,42.805,6.029,13.3076,4.60167,2470.646,2023-7-16T04:40:25Z
2023-07-16T02:41:12Z,42.805,6.029,13.3069,4.60130,2470.67,2023-7-16T04:43:28Z
2023-07-16T02:44:15Z,42.805,6.029,13.3100,4.60172,2470.707,2023-7-16T04:46:31Z
2023-07-16T02:47:18Z,42.805,6.029,13.3102,4.60142,2470.661,2023-7-16T04:49:35Z
2023-07-16T02:50:21Z,42.805,6.029,13.3096,4.60135,2470.646,2023-7-16T04:52:38Z
2023-07-16T02:53:24Z,42.805,6.029,13.3105,4.60128,2470.646,2023-7-16T04:55:41Z
2023-07-16T02:56:27Z,42.805,6.029,13.3104,4.60117,2470.67,2023-7-16T04:58:44Z
2023-07-16T02:59:30Z,42.805,6.029,13.3109,4.60114,2470.661,2023-7-16T05:01:47Z
2023-07-16T03:02:33Z,42.805,6.029,13.3098,4.60121,2470.684,2023-7-16T05:04:50Z
2023-07-16T03:05:36Z,42.805,6.029,13.3114,4.60116,2470.707,2023-7-16T05:07:53Z
2023-07-16T03:08:39Z,42.805,6.029,13.3112,4.60119,2470.684,2023-7-16T05:10:56Z
2023-07-16T03:11:42Z,42.805,6.029,13.3083,4.60120,2470.67,2023-7-16T05:13:59Z
2023-07-16T03:14:46Z,42.805,6.029,13.3092,4.60107,2470.693,2023-7-16T05:17:02Z
2023-07-16T03:17:49Z,42.805,6.029,13.3099,4.60115,2470.693,2023-7-16T05:20:05Z
2023-07-16T03:20:52Z,42.805,6.029,13.3110,4.60123,2470.684,2023-7-16T05:23:09Z
2023-07-16T03:23:55Z,42.805,6.029,13.3096,4.60125,2470.684,2023-7-16T05:26:12Z
2023-07-16T03:26:58Z,42.805,6.029,13.3087,4.60135,2470.684,2023-7-16T05:29:15Z
2023-07-16T03:30:01Z,42.805,6.029,13.3095,4.60123,2470.684,2023-7-16T05:32:18Z
2023-07-16T03:33:04Z,42.805,6.029,13.3108,4.60122,2470.684,2023-7-16T05:35:21Z
2023-07-16T03:36:07Z,42.805,6.029,13.3095,4.60173,2470.661,2023-7-16T05:38:24Z
2023-07-16T03:39:10Z,42.805,6.029,13.3089,4.60138,2470.693,2023-7-16T05:41:27Z
2023-07-16T03:42:13Z,42.805,6.029,13.3085,4.60142,2470.707,2023-7-16T05:44:30Z
2023-07-16T03:45:16Z,42.805,6.029,13.3087,4.60132,2470.684,2023-7-16T05:47:33Z
2023-07-16T03:48:19Z,42.805,6.029,13.3085,4.60124,2470.684,2023-7-16T05:50:36Z
2023-07-16T03:51:23Z,42.805,6.029,13.3097,4.60125,2470.684,2023-7-16T05:53:39Z
2023-07-16T03:54:26Z,42.805,6.029,13.3101,4.60118,2470.693,2023-7-16T05:56:42Z
2023-07-16T03:57:29Z,42.805,6.029,13.3119,4.60120,2470.707,2023-7-16T05:59:45Z
2023-07-16T04:00:32Z,42.805,6.029,13.3118,4.60120,2470.73,2023-7-16T06:02:49Z
2023-07-16T04:03:35Z,42.805,6.029,13.3110,4.60137,2470.707,2023-7-16T06:05:52Z
2023-07-16T04:06:38Z,42.805,6.029,13.3111,4.60136,2470.73,2023-7-16T06:08:55Z
2023-07-16T04:09:41Z,42.805,6.029,13.3104,4.60123,2470.646,2023-7-16T06:11:58Z
2023-07-16T04:12:44Z,42.805,6.029,13.3080,4.60125,2470.67,2023-7-16T06:15:01Z
2023-07-16T04:15:47Z,42.805,6.029,13.3090,4.60130,2470.73,2023-7-16T06:18:04Z
2023-07-16T04:18:50Z,42.805,6.029,13.3093,4.60144,2470.73,2023-7-16T06:21:07Z
2023-07-16T04:21:53Z,42.805,6.029,13.3096,4.60150,2470.707,2023-7-16T06:24:10Z
2023-07-16T04:24:56Z,42.805,6.029,13.3083,4.60124,2470.73,2023-7-16T06:27:13Z
2023-07-16T04:28:00Z,42.805,6.029,13.3060,4.60148,2470.693,2023-7-16T06:30:16Z
2023-07-16T04:31:03Z,42.805,6.029,13.3058,4.60143,2470.717,2023-7-16T06:33:19Z
2023-07-16T04:34:06Z,42.805,6.029,13.3061,4.60140,2470.707,2023-7-16T06:36:22Z
2023-07-16T04:37:09Z,42.805,6.029,13.3090,4.60122,2470.684,2023-7-16T06:39:26Z
2023-07-16T04:40:12Z,42.805,6.029,13.3054,4.60137,2470.73,2023-7-16T06:42:29Z
2023-07-16T04:43:15Z,42.805,6.029,13.3072,4.60140,2470.73,2023-7-16T06:45:32Z
2023-07-16T04:46:18Z,42.805,6.029,13.3070,4.60178,2470.717,2023-7-16T06:48:35Z
2023-07-16T04:49:21Z,42.805,6.029,13.3106,4.60197,2470.717,2023-7-16T06:51:38Z
2023-07-16T04:52:24Z,42.805,6.029,13.3111,4.60136,2470.693,2023-7-16T06:54:41Z
2023-07-16T04:55:27Z,42.805,6.029,13.3113,4.60119,2470.73,2023-7-16T06:57:44Z
2023-07-16T04:58:30Z,42.805,6.029,13.3118,4.60125,2470.73,2023-7-16T07:00:47Z
2023-07-16T05:01:33Z,42.805,6.029,13.3100,4.60146,2470.684,2023-7-16T07:03:50Z
2023-07-16T05:04:37Z,42.805,6.029,13.3070,4.60144,2470.717,2023-7-16T07:06:53Z
2023-07-16T05:07:40Z,42.805,6.029,13.3097,4.60184,2470.73,2023-7-16T07:09:56Z
2023-07-16T05:10:43Z,42.805,6.029,13.3043,4.60160,2470.763,2023-7-16T07:12:59Z
2023-07-16T05:13:46Z,42.805,6.029,13.3053,4.60160,2470.707,2023-7-16T07:16:03Z
2023-07-16T05:16:49Z,42.805,6.029,13.3029,4.60216,2470.726,2023-7-16T07:19:06Z
2023-07-16T05:19:52Z,42.805,6.029,13.3029,4.60146,2470.717,2023-7-16T07:22:09Z
2023-07-16T05:22:55Z,42.805,6.029,13.3026,4.60125,2470.717,2023-7-16T07:25:12Z
2023-07-16T05:25:58Z,42.805,6.029,13.3030,4.60129,2470.73,2023-7-16T07:28:15Z
2023-07-16T05:29:01Z,42.805,6.029,13.3026,4.60119,2470.693,2023-7-16T07:31:18Z
2023-07-16T05:32:04Z,42.805,6.029,13.3026,4.60127,2470.717,2023-7-16T07:34:21Z
2023-07-16T05:35:07Z,42.805,6.029,13.3029,4.60135,2470.717,2023-7-16T07:37:24Z
2023-07-16T05:38:10Z,42.805,6.029,13.3029,4.60116,2470.693,2023-7-16T07:40:27Z
2023-07-16T05:41:14Z,42.805,6.029,13.3033,4.60094,2470.73,2023-7-16T07:43:30Z
2023-07-16T05:44:17Z,42.805,6.029,13.3032,4.60101,2470.74,2023-7-16T07:46:33Z
2023-07-16T05:47:20Z,42.805,6.029,13.3030,4.60100,2470.74,2023-7-16T07:49:36Z
2023-07-16T05:50:23Z,42.805,6.029,13.3029,4.60100,2470.717,2023-7-16T07:52:40Z
2023-07-16T05:53:26Z,42.805,6.029,13.3027,4.60117,2470.73,2023-7-16T07:55:43Z
2023-07-16T05:56:29Z,42.805,6.029,13.3027,4.60127,2470.73,2023-7-16T07:58:46Z
2023-07-16T05:59:32Z,42.805,6.029,13.3026,4.60102,2470.73,2023-7-16T08:01:49Z
2023-07-16T06:02:35Z,42.805,6.029,13.3027,4.60110,2470.74,2023-7-16T08:04:52Z
2023-07-16T06:05:38Z,42.805,6.029,13.3032,4.60097,2470.754,2023-7-16T08:07:55Z
2023-07-16T06:08:41Z,42.805,6.029,13.3026,4.60129,2470.717,2023-7-16T08:10:58Z
2023-07-16T06:11:44Z,42.805,6.029,13.3028,4.60099,2470.754,2023-7-16T08:14:01Z
2023-07-16T06:14:47Z,42.805,6.029,13.3027,4.60123,2470.74,2023-7-16T08:17:04Z
2023-07-16T06:17:51Z,42.805,6.029,13.3026,4.60122,2470.74,2023-7-16T08:20:07Z
2023-07-16T06:20:54Z,42.805,6.029,13.3022,4.60134,2470.73,2023-7-16T08:23:10Z
2023-07-16T06:23:57Z,42.805,6.029,13.3026,4.60120,2470.717,2023-7-16T08:26:13Z
2023-07-16T06:27:00Z,42.805,6.029,13.3029,4.60112,2470.717,2023-7-16T08:29:17Z
2023-07-16T06:30:03Z,42.805,6.029,13.3031,4.60095,2470.73,2023-7-16T08:32:20Z
2023-07-16T06:33:04Z,42.805,6.029,13.3026,4.60113,2470.717,2023-7-16T08:35:21Z
2023-07-16T06:36:07Z,42.805,6.029,13.3026,4.60132,2470.717,2023-7-16T08:38:24Z
2023-07-16T06:39:10Z,42.805,6.029,13.3027,4.60125,2470.754,2023-7-16T08:41:27Z
2023-07-16T06:42:13Z,42.805,6.029,13.3025,4.60109,2470.74,2023-7-16T08:44:30Z
2023-07-16T06:45:16Z,42.805,6.029,13.3028,4.60113,2470.74,2023-7-16T08:47:33Z
2023-07-16T06:48:19Z,42.805,6.029,13.3029,4.60110,2470.74,2023-7-16T08:50:36Z
2023-07-16T06:51:23Z,42.805,6.029,13.3028,4.60107,2470.74,2023-7-16T08:53:39Z
2023-07-16T06:54:26Z,42.805,6.029,13.3029,4.60100,2470.717,2023-7-16T08:56:42Z
2023-07-16T06:57:29Z,42.805,6.029,13.3034,4.60106,2470.74,2023-7-16T08:59:45Z
2023-07-16T07:00:32Z,42.805,6.029,13.3031,4.60095,2470.754,2023-7-16T09:02:49Z
2023-07-16T07:03:35Z,42.805,6.029,13.3027,4.60099,2470.754,2023-7-16T09:05:52Z
2023-07-16T07:06:38Z,42.805,6.029,13.3028,4.60094,2470.777,2023-7-16T09:08:55Z
2023-07-16T07:09:41Z,42.805,6.029,13.3034,4.60092,2470.73,2023-7-16T09:11:58Z
2023-07-16T07:12:44Z,42.805,6.029,13.3031,4.60096,2470.74,2023-7-16T09:15:01Z
2023-07-16T07:15:47Z,42.805,6.029,13.3034,4.60098,2470.693,2023-7-16T09:18:04Z
2023-07-16T07:18:50Z,42.805,6.029,13.3036,4.60093,2470.693,2023-7-16T09:21:07Z
2023-07-16T07:21:53Z,42.805,6.029,13.3036,4.60097,2470.754,2023-7-16T09:24:10Z
2023-07-16T07:24:56Z,42.805,6.029,13.3031,4.60097,2470.707,2023-7-16T09:27:13Z
2023-07-16T07:27:59Z,42.805,6.029,13.3026,4.60093,2470.754,2023-7-16T09:30:16Z
2023-07-16T07:31:03Z,42.805,6.029,13.3028,4.60091,2470.74,2023-7-16T09:33:19Z
2023-07-16T07:34:06Z,42.805,6.029,13.3031,4.60091,2470.684,2023-7-16T09:36:22Z
2023-07-16T07:37:09Z,42.805,6.029,13.3031,4.60093,2470.717,2023-7-16T09:39:25Z
2023-07-16T07:40:12Z,42.805,6.029,13.3027,4.60090,2470.754,2023-7-16T09:42:29Z
2023-07-16T07:43:15Z,42.805,6.029,13.3026,4.60091,2470.693,2023-7-16T09:45:32Z
2023-07-16T07:46:18Z,42.805,6.029,13.3029,4.60094,2470.693,2023-7-16T09:48:35Z
2023-07-16T07:49:21Z,42.805,6.029,13.3026,4.60095,2470.717,2023-7-16T09:51:38Z
2023-07-16T07:52:24Z,42.805,6.029,13.3031,4.60095,2470.67,2023-7-16T09:54:41Z
2023-07-16T07:55:27Z,42.805,6.029,13.3026,4.60091,2470.693,2023-7-16T09:57:44Z
2023-07-16T07:58:30Z,42.805,6.029,13.3028,4.60094,2470.67,2023-7-16T10:00:47Z
2023-07-16T08:01:33Z,42.805,6.029,13.3029,4.60094,2470.693,2023-7-16T10:03:50Z
2023-07-16T08:04:36Z,42.805,6.029,13.3025,4.60108,2470.693,2023-7-16T10:06:53Z
2023-07-16T08:07:40Z,42.805,6.029,13.3024,4.60094,2470.693,2023-7-16T10:09:56Z
2023-07-16T08:10:43Z,42.805,6.029,13.3028,4.60091,2470.693,2023-7-16T10:12:59Z
2023-07-16T08:13:46Z,42.805,6.029,13.3029,4.60090,2470.707,2023-7-16T10:16:02Z
2023-07-16T08:16:49Z,42.805,6.029,13.3023,4.60089,2470.707,2023-7-16T10:19:06Z
2023-07-16T08:19:52Z,42.805,6.029,13.3028,4.60089,2470.707,2023-7-16T10:22:09Z
2023-07-16T08:22:55Z,42.805,6.029,13.3025,4.60089,2470.73,2023-7-16T10:25:12Z
2023-07-16T08:25:58Z,42.805,6.029,13.3028,4.60091,2470.684,2023-7-16T10:28:15Z
2023-07-16T08:29:01Z,42.805,6.029,13.3026,4.60098,2470.707,2023-7-16T10:31:18Z
2023-07-16T08:32:03Z,42.805,6.029,13.3026,4.60095,2470.67,2023-7-16T10:34:19Z
2023-07-16T08:35:06Z,42.805,6.029,13.3031,4.60091,2470.707,2023-7-16T10:37:23Z
2023-07-16T08:38:09Z,42.805,6.029,13.3031,4.60099,2470.693,2023-7-16T10:40:26Z
2023-07-16T08:41:12Z,42.805,6.029,13.3030,4.60104,2470.67,2023-7-16T10:43:29Z
2023-07-16T08:44:15Z,42.805,6.029,13.3024,4.60104,2470.684,2023-7-16T10:46:32Z
2023-07-16T08:47:18Z,42.805,6.029,13.3024,4.60101,2470.67,2023-7-16T10:49:35Z
2023-07-16T08:50:21Z,42.805,6.029,13.3026,4.60094,2470.684,2023-7-16T10:52:38Z
2023-07-16T08:53:24Z,42.805,6.029,13.3026,4.60094,2470.693,2023-7-16T10:55:41Z
2023-07-16T08:56:27Z,42.805,6.029,13.3039,4.60123,2470.707,2023-7-16T10:58:44Z
2023-07-16T08:59:30Z,42.805,6.029,13.3036,4.60106,2470.67,2023-7-16T11:01:47Z
2023-07-16T09:02:34Z,42.805,6.029,13.3050,4.60101,2470.684,2023-7-16T11:04:50Z
2023-07-16T09:05:37Z,42.805,6.029,13.3118,4.60109,2470.684,2023-7-16T11:07:53Z
2023-07-16T09:08:40Z,42.805,6.029,13.3029,4.60097,2470.693,2023-7-16T11:10:56Z
2023-07-16T09:11:43Z,42.805,6.029,13.3041,4.60131,2470.684,2023-7-16T11:14:00Z
2023-07-16T09:14:46Z,42.805,6.029,13.3054,4.60111,2470.646,2023-7-16T11:17:03Z
2023-07-16T09:17:49Z,42.805,6.029,13.3072,4.60137,2470.67,2023-7-16T11:20:06Z
2023-07-16T09:20:52Z,42.805,6.029,13.3056,4.60131,2470.646,2023-7-16T11:23:09Z
2023-07-16T09:23:55Z,42.805,6.029,13.3066,4.60132,2470.67,2023-7-16T11:26:12Z
2023-07-16T09:26:58Z,42.805,6.029,13.3072,4.60131,2470.656,2023-7-16T11:29:15Z
2023-07-16T09:30:01Z,42.805,6.029,13.3054,4.60093,2470.67,2023-7-16T11:32:18Z
2023-07-16T09:33:04Z,42.805,6.029,13.3069,4.60135,2470.693,2023-7-16T11:35:21Z
2023-07-16T09:36:07Z,42.805,6.029,13.3056,4.60146,2470.67,2023-7-16T11:38:24Z
2023-07-16T09:39:11Z,42.805,6.029,13.3058,4.60129,2470.661,2023-7-16T11:41:27Z
2023-07-16T09:42:14Z,42.805,6.029,13.3061,4.60112,2470.637,2023-7-16T11:44:30Z
2023-07-16T09:45:17Z,42.805,6.029,13.3053,4.60120,2470.646,2023-7-16T11:47:34Z
2023-07-16T09:48:20Z,42.805,6.029,13.3055,4.60140,2470.646,2023-7-16T11:50:37Z
2023-07-16T09:51:23Z,42.805,6.029,13.3054,4.60119,2470.646,2023-7-16T11:53:40Z
2023-07-16T09:54:26Z,42.805,6.029,13.3062,4.60138,2470.624,2023-7-16T11:56:43Z
2023-07-16T09:57:29Z,42.805,6.029,13.3059,4.60155,2470.661,2023-7-16T11:59:46Z
2023-07-16T10:00:32Z,42.805,6.029,13.3051,4.60162,2470.661,2023-7-16T12:02:49Z
2023-07-16T10:03:35Z,42.805,6.029,13.3056,4.60127,2470.624,2023-7-16T12:05:52Z
2023-07-16T10:06:38Z,42.805,6.029,13.3064,4.60175,2470.661,2023-7-16T12:08:55Z
2023-07-16T10:09:41Z,42.805,6.029,13.3050,4.60162,2470.646,2023-7-16T12:11:58Z
2023-07-16T10:12:45Z,42.805,6.029,13.3048,4.60169,2470.624,2023-7-16T12:15:01Z
2023-07-16T10:15:48Z,42.805,6.029,13.3044,4.60157,2470.637,2023-7-16T12:18:04Z
2023-07-16T10:18:51Z,42.805,6.029,13.3061,4.60178,2470.624,2023-7-16T12:21:07Z
2023-07-16T10:21:54Z,42.805,6.029,13.3083,4.60165,2470.6,2023-7-16T12:24:11Z
2023-07-16T10:24:57Z,42.805,6.029,13.3065,4.60169,2470.637,2023-7-16T12:27:14Z
2023-07-16T10:28:00Z,42.805,6.029,13.3047,4.60172,2470.637,2023-7-16T12:30:17Z
2023-07-16T10:31:01Z,42.805,6.029,13.3051,4.60165,2470.614,2023-7-16T12:33:18Z
2023-07-16T10:34:04Z,42.805,6.029,13.3049,4.60174,2470.637,2023-7-16T12:36:21Z
2023-07-16T10:37:07Z,42.805,6.029,13.3061,4.60163,2470.624,2023-7-16T12:39:24Z
2023-07-16T10:40:11Z,42.805,6.029,13.3048,4.60193,2470.614,2023-7-16T12:42:27Z
2023-07-16T10:43:14Z,42.805,6.029,13.3062,4.60173,2470.661,2023-7-16T12:45:30Z
2023-07-16T10:46:17Z,42.805,6.029,13.3058,4.60168,2470.624,2023-7-16T12:48:33Z
2023-07-16T10:49:20Z,42.805,6.029,13.3056,4.60178,2470.614,2023-7-16T12:51:37Z
2023-07-16T10:52:23Z,42.805,6.029,13.3047,4.60178,2470.586,2023-7-16T12:54:40Z
2023-07-16T10:55:26Z,42.805,6.029,13.3044,4.60168,2470.614,2023-7-16T12:57:43Z
2023-07-16T10:58:29Z,42.805,6.029,13.3043,4.60155,2470.614,2023-7-16T13:00:46Z
2023-07-16T11:01:32Z,42.805,6.029,13.3043,4.60180,2470.577,2023-7-16T13:03:49Z
2023-07-16T11:04:35Z,42.805,6.029,13.3068,4.60160,2470.614,2023-7-16T13:06:52Z
2023-07-16T11:07:38Z,42.805,6.029,13.3047,4.60173,2470.577,2023-7-16T13:09:55Z
2023-07-16T11:10:41Z,42.805,6.029,13.3048,4.60182,2470.637,2023-7-16T13:12:58Z
2023-07-16T11:13:44Z,42.805,6.029,13.3057,4.60164,2470.586,2023-7-16T13:16:01Z
2023-07-16T11:16:48Z,42.805,6.029,13.3054,4.60158,2470.624,2023-7-16T13:19:04Z
2023-07-16T11:19:51Z,42.805,6.029,13.3048,4.60161,2470.614,2023-7-16T13:22:07Z
2023-07-16T11:22:54Z,42.805,6.029,13.3048,4.60145,2470.591,2023-7-16T13:25:11Z
2023-07-16T11:25:57Z,42.805,6.029,13.3048,4.60152,2470.6,2023-7-16T13:28:14Z
2023-07-16T11:29:00Z,42.805,6.029,13.3044,4.60157,2470.637,2023-7-16T13:31:17Z
2023-07-16T11:32:03Z,42.805,6.029,13.3059,4.60165,2470.591,2023-7-16T13:34:20Z
2023-07-16T11:35:06Z,42.805,6.029,13.3036,4.60133,2470.6,2023-7-16T13:37:23Z
2023-07-16T11:38:09Z,42.805,6.029,13.3061,4.60164,2470.591,2023-7-16T13:40:26Z
2023-07-16T11:41:12Z,42.805,6.029,13.3061,4.60155,2470.624,2023-7-16T13:43:29Z
2023-07-16T11:44:15Z,42.805,6.029,13.3064,4.60167,2470.614,2023-7-16T13:46:32Z
2023-07-16T11:47:18Z,42.805,6.029,13.3041,4.60179,2470.637,2023-7-16T13:49:35Z
2023-07-16T11:50:22Z,42.805,6.029,13.3037,4.60165,2470.567,2023-7-16T13:52:38Z
2023-07-16T11:53:25Z,42.805,6.029,13.3050,4.60142,2470.591,2023-7-16T13:55:41Z
2023-07-16T11:56:28Z,42.805,6.029,13.3051,4.60164,2470.591,2023-7-16T13:58:44Z
2023-07-16T11:59:31Z,42.805,6.029,13.3045,4.60150,2470.577,2023-7-16T14:01:48Z
2023-07-16T12:02:34Z,42.805,6.029,13.3053,4.60164,2470.591,2023-7-16T14:04:51Z
2023-07-16T12:05:37Z,42.805,6.029,13.3046,4.60157,2470.591,2023-7-16T14:07:54Z
2023-07-16T12:08:40Z,42.805,6.029,13.3058,4.60163,2470.577,2023-7-16T14:10:57Z
2023-07-16T12:11:43Z,42.805,6.029,13.3067,4.60155,2470.591,2023-7-16T14:14:00Z
2023-07-16T12:14:46Z,42.805,6.029,13.3046,4.60155,2470.6,2023-7-16T14:17:03Z
2023-07-16T12:17:49Z,42.805,6.029,13.3032,4.60152,2470.591,2023-7-16T14:20:06Z
2023-07-16T12:20:52Z,42.805,6.029,13.3034,4.60129,2470.6,2023-7-16T14:23:09Z
2023-07-16T12:23:55Z,42.805,6.029,13.3038,4.60133,2470.577,2023-7-16T14:26:12Z
2023-07-16T12:26:59Z,42.805,6.029,13.3036,4.60129,2470.577,2023-7-16T14:29:15Z
2023-07-16T12:30:02Z,42.805,6.029,13.3043,4.60130,2470.591,2023-7-16T14:32:18Z
2023-07-16T12:33:05Z,42.805,6.029,13.3036,4.60118,2470.567,2023-7-16T14:35:21Z
2023-07-16T12:36:08Z,42.805,6.029,13.3041,4.60127,2470.567,2023-7-16T14:38:25Z
2023-07-16T12:39:11Z,42.805,6.029,13.3034,4.60116,2470.591,2023-7-16T14:41:28Z
2023-07-16T12:42:14Z,42.805,6.029,13.3036,4.60121,2470.577,2023-7-16T14:44:31Z
2023-07-16T12:45:17Z,42.805,6.029,13.3035,4.60114,2470.591,2023-7-16T14:47:34Z
2023-07-16T12:48:20Z,42.805,6.029,13.3041,4.60115,2470.591,2023-7-16T14:50:37Z
2023-07-16T12:51:23Z,42.805,6.029,13.3031,4.60156,2470.6,2023-7-16T14:53:40Z
2023-07-16T12:54:26Z,42.805,6.029,13.3030,4.60131,2470.567,2023-7-16T14:56:43Z
2023-07-16T12:57:29Z,42.805,6.029,13.3042,4.60176,2470.6,2023-7-16T14:59:46Z
2023-07-16T13:00:32Z,42.805,6.029,13.3057,4.60160,2470.553,2023-7-16T15:02:49Z
2023-07-16T13:03:36Z,42.805,6.029,13.3043,4.60132,2470.591,2023-7-16T15:05:52Z
2023-07-16T13:06:39Z,42.805,6.029,13.3045,4.60134,2470.577,2023-7-16T15:08:55Z
2023-07-16T13:09:42Z,42.805,6.029,13.3035,4.60157,2470.614,2023-7-16T15:11:58Z
2023-07-16T13:12:45Z,42.805,6.029,13.3039,4.60138,2470.577,2023-7-16T15:15:02Z
2023-07-16T13:15:48Z,42.805,6.029,13.3041,4.60128,2470.577,2023-7-16T15:18:05Z
2023-07-16T13:18:51Z,42.805,6.029,13.3045,4.60140,2470.6,2023-7-16T15:21:08Z
2023-07-16T13:21:54Z,42.805,6.029,13.3032,4.60145,2470.591,2023-7-16T15:24:11Z
2023-07-16T13:24:57Z,42.805,6.029,13.3037,4.60134,2470.6,2023-7-16T15:27:14Z
2023-07-16T13:28:00Z,42.805,6.029,13.3044,4.60146,2470.6,2023-7-16T15:30:17Z
2023-07-16T13:31:03Z,42.805,6.029,13.3049,4.60117,2470.624,2023-7-16T15:33:20Z
2023-07-16T13:34:06Z,42.805,6.029,13.3048,4.60136,2470.614,2023-7-16T15:36:23Z
2023-07-16T13:37:09Z,42.805,6.029,13.3066,4.60165,2470.577,2023-7-16T15:39:26Z
2023-07-16T13:40:13Z,42.805,6.029,13.3059,4.60162,2470.637,2023-7-16T15:42:29Z
2023-07-16T13:43:16Z,42.805,6.029,13.3067,4.60152,2470.6,2023-7-16T15:45:32Z
2023-07-16T13:46:19Z,42.805,6.029,13.3079,4.60150,2470.553,2023-7-16T15:48:36Z
2023-07-16T13:49:22Z,42.805,6.029,13.3078,4.60141,2470.614,2023-7-16T15:51:39Z
2023-07-16T13:52:25Z,42.805,6.029,13.3058,4.60155,2470.6,2023-7-16T15:54:42Z
2023-07-16T13:55:28Z,42.805,6.029,13.3061,4.60164,2470.6,2023-7-16T15:57:45Z
2023-07-16T13:58:31Z,42.805,6.029,13.3068,4.60164,2470.614,2023-7-16T16:00:48Z
2023-07-16T14:01:34Z,42.805,6.029,13.3034,4.60154,2470.614,2023-7-16T16:03:51Z
2023-07-16T14:04:37Z,42.805,6.029,13.3058,4.60158,2470.6,2023-7-16T16:06:54Z
2023-07-16T14:07:40Z,42.805,6.029,13.3063,4.60150,2470.614,2023-7-16T16:09:57Z
2023-07-16T14:10:43Z,42.805,6.029,13.3077,4.60182,2470.637,2023-7-16T16:13:00Z
2023-07-16T14:13:46Z,42.805,6.029,13.3079,4.60201,2470.6,2023-7-16T16:16:03Z
2023-07-16T14:16:50Z,42.805,6.029,13.3077,4.60170,2470.637,2023-7-16T16:19:06Z
2023-07-16T14:19:53Z,42.805,6.029,13.3076,4.60175,2470.661,2023-7-16T16:22:09Z
2023-07-16T14:22:56Z,42.805,6.029,13.3095,4.60142,2470.637,2023-7-16T16:25:12Z
2023-07-16T14:25:59Z,42.805,6.029,13.3063,4.60161,2470.624,2023-7-16T16:28:16Z
2023-07-16T14:29:02Z,42.805,6.029,13.3070,4.60119,2470.6,2023-7-16T16:31:19Z
2023-07-16T14:32:04Z,42.805,6.029,13.3069,4.60185,2470.614,2023-7-16T16:34:21Z
2023-07-16T14:35:07Z,42.805,6.029,13.3069,4.60142,2470.6,2023-7-16T16:37:24Z
2023-07-16T14:38:10Z,42.805,6.029,13.3068,4.60204,2470.6,2023-7-16T16:40:27Z
2023-07-16T14:41:13Z,42.805,6.029,13.3113,4.60207,2470.614,2023-7-16T16:43:30Z
2023-07-16T14:44:16Z,42.805,6.029,13.3118,4.60233,2470.661,2023-7-16T16:46:33Z
2023-07-16T14:47:19Z,42.805,6.029,13.3120,4.60200,2470.637,2023-7-16T16:49:36Z
2023-07-16T14:50:22Z,42.805,6.029,13.3103,4.60160,2470.624,2023-7-16T16:52:39Z
2023-07-16T14:53:26Z,42.805,6.029,13.3089,4.60204,2470.637,2023-7-16T16:55:42Z
2023-07-16T14:56:29Z,42.805,6.029,13.3063,4.60248,2470.637,2023-7-16T16:58:45Z
2023-07-16T14:59:32Z,42.805,6.029,13.3089,4.60122,2470.661,2023-7-16T17:01:49Z
2023-07-16T15:02:35Z,42.805,6.029,13.3113,4.60160,2470.661,2023-7-16T17:04:52Z
2023-07-16T15:05:38Z,42.805,6.029,13.3096,4.60159,2470.646,2023-7-16T17:07:55Z
2023-07-16T15:08:41Z,42.805,6.029,13.3085,4.60157,2470.637,2023-7-16T17:10:58Z
2023-07-16T15:11:44Z,42.805,6.029,13.3096,4.60114,2470.661,2023-7-16T17:14:01Z
2023-07-16T15:14:47Z,42.805,6.029,13.3093,4.60172,2470.646,2023-7-16T17:17:04Z